Location: Buch
(50.1863°N, 11.0141°E)
Time: 21:58:25
(UTC+00:00)

Meteor 1-21 Rocket - Pass Details

Date: 18 January 2020
Orbit: 834 x 906 km, 81.2° (Epoch: 28 February)

Event Time Altitude Azimuth Distance (km) Brightness Sun altitude
Rises 05:03:50 0° 346° (NNW) 3,495 7.2 -19.2°
Reaches altitude 10° 05:06:17 10° 344° (NNW) 2,562 6.5 -18.8°
Maximum altitude 05:12:06 71° 262° (W) 947 4.2 -17.9°
Drops below altitude 10° 05:17:57 10° 179° (S) 2,578 6.9 -17.0°
Sets 05:20:25 0° 177° (S) 3,518 7.6 -16.6°
